When you browse on this site, cookies collect data to enhance your experience and personalize the content and advertising you see.
Visit our Privacy Policy to learn more. By continuing to use the site, you agree to this use of cookies and data.
  • In United Kingdom
  • List of Countries
  • For 7 days
  • Water Temperature
  • Weather Map
  • Weather Widgets
  • user-avatar
    Login

    Hourly Weather Iquitos

    Today, 19 September, Thursday

    Time Temperature Precipitation Wind Pressure Humidity
    00:00 +26°C° 0 mm 0 mps 747 mmHg 76%
    01:00 +25°C° 0 mm 0 mps 747 mmHg 78%
    02:00 +25°C° 0 mm 0 mps 747 mmHg 79%
    03:00 +25°C° 0 mm 0 mps 747 mmHg 80%
    04:00 +24°C° 0 mm 0 mps 747 mmHg 82%
    05:00 +25°C° 0 mm 0 mps 747 mmHg 80%
    06:00 +26°C° 0 mm 0 mps 748 mmHg 78%
    07:00 +27°C° 0 mm 0 mps 748 mmHg 76%
    08:00 +29°C° 0 mm 0 mps 749 mmHg 64%
    09:00 +34°C° 0 mm 1 mps 749 mmHg 53%
    10:00 +37°C° 0 mm 1 mps 749 mmHg 42%
    11:00 +39°C° 0 mm 1 mps 748 mmHg 40%
    12:00 +40°C° 0 mm 1 mps 747 mmHg 37%
    13:00 +40°C° 0 mm 1 mps 746 mmHg 35%
    14:00 +39°C° 0 mm 1 mps 746 mmHg 39%
    15:00 +37°C° 0 mm 1 mps 745 mmHg 42%
    16:00 +36°C° 0 mm 1 mps 745 mmHg 46%
    17:00 +32°C° 0 mm 0 mps 745 mmHg 51%
    18:00 +30°C° 0 mm 0 mps 745 mmHg 57%
    19:00 +28°C° 0 mm 0 mps 746 mmHg 62%
    20:00 +28°C° 0 mm 0 mps 746 mmHg 64%
    21:00 +27°C° 0 mm 0 mps 747 mmHg 66%
    22:00 +27°C° 0 mm 0 mps 747 mmHg 68%
    23:00 +26°C° 0 mm 0 mps 747 mmHg 70%

    Tomorrow, 20 September, Friday

    Time Temperature Precipitation Wind Pressure Humidity
    00:00 +26°C° 0 mm 0 mps 747 mmHg 72%
    01:00 +26°C° 0 mm 0 mps 747 mmHg 73%
    02:00 +25°C° 0.4 mm 0 mps 747 mmHg 78%
    03:00 +24°C° 0.4 mm 0 mps 747 mmHg 82%
    04:00 +26°C° 0.4 mm 1 mps 747 mmHg 87%
    05:00 +26°C° 0.1 mm 1 mps 748 mmHg 88%
    06:00 +26°C° 0.1 mm 1 mps 749 mmHg 89%
    07:00 +27°C° 0.1 mm 1 mps 749 mmHg 90%
    08:00 +30°C° 0 mm 1 mps 750 mmHg 77%
    09:00 +33°C° 0 mm 1 mps 750 mmHg 63%
    10:00 +36°C° 0 mm 1 mps 750 mmHg 50%
    11:00 +37°C° 0 mm 1 mps 749 mmHg 45%
    12:00 +40°C° 0 mm 1 mps 749 mmHg 39%
    13:00 +41°C° 0 mm 1 mps 748 mmHg 34%
    14:00 +40°C° 0 mm 1 mps 747 mmHg 38%
    15:00 +39°C° 0 mm 1 mps 747 mmHg 43%
    16:00 +36°C° 0 mm 1 mps 746 mmHg 47%
    17:00 +34°C° 0 mm 1 mps 746 mmHg 54%
    18:00 +32°C° 0 mm 1 mps 746 mmHg 61%
    19:00 +28°C° 0 mm 0 mps 746 mmHg 68%
    20:00 +27°C° 1.2 mm 0 mps 747 mmHg 76%
    21:00 +26°C° 1.2 mm 0 mps 748 mmHg 84%
    22:00 +24°C° 1.2 mm 0 mps 749 mmHg 92%
    23:00 +24°C° 1.3 mm 0 mps 749 mmHg 93%

    Day after tomorrow, 21 September, Saturday

    Time Temperature Precipitation Wind Pressure Humidity
    00:00 +26°C° 1.3 mm 1 mps 749 mmHg 95%
    01:00 +26°C° 1.3 mm 1 mps 749 mmHg 97%
    02:00 +25°C° 1.5 mm 1 mps 749 mmHg 97%
    03:00 +25°C° 1.5 mm 1 mps 749 mmHg 98%
    04:00 +25°C° 1.5 mm 1 mps 749 mmHg 99%
    05:00 +25°C° 1.5 mm 1 mps 750 mmHg 98%
    06:00 +25°C° 1.5 mm 1 mps 751 mmHg 98%
    07:00 +26°C° 1.5 mm 1 mps 752 mmHg 97%
    08:00 +27°C° 0 mm 1 mps 752 mmHg 88%
    09:00 +29°C° 0 mm 1 mps 753 mmHg 79%
    10:00 +31°C° 0 mm 1 mps 753 mmHg 70%
    11:00 +31°C° 0.8 mm 1 mps 752 mmHg 72%
    12:00 +31°C° 0.8 mm 1 mps 751 mmHg 75%
    13:00 +31°C° 0.8 mm 1 mps 750 mmHg 77%
    14:00 +31°C° 0.8 mm 1 mps 749 mmHg 74%
    15:00 +32°C° 0.8 mm 1 mps 749 mmHg 72%
    16:00 +32°C° 0.8 mm 1 mps 749 mmHg 69%
    17:00 +30°C° 0.6 mm 1 mps 749 mmHg 78%
    18:00 +28°C° 0.6 mm 1 mps 750 mmHg 86%
    19:00 +26°C° 0.6 mm 1 mps 750 mmHg 95%
    20:00 +26°C° 0.4 mm 1 mps 750 mmHg 96%
    21:00 +26°C° 0.4 mm 1 mps 751 mmHg 97%
    22:00 +25°C° 0.4 mm 1 mps 751 mmHg 97%
    23:00 +25°C° 0 mm 1 mps 751 mmHg 98%

    22 September, Sunday

    Time Temperature Precipitation Wind Pressure Humidity
    00:00 +25°C° 0 mm 1 mps 751 mmHg 98%
    01:00 +25°C° 0 mm 1 mps 750 mmHg 98%
    02:00 +24°C° 0 mm 1 mps 750 mmHg 98%
    03:00 +22°C° 0 mm 0 mps 750 mmHg 98%
    04:00 +22°C° 0 mm 0 mps 750 mmHg 98%
    05:00 +22°C° 0 mm 0 mps 751 mmHg 96%
    06:00 +23°C° 0 mm 0 mps 751 mmHg 95%
    07:00 +23°C° 0 mm 0 mps 752 mmHg 93%
    08:00 +26°C° 0 mm 0 mps 752 mmHg 79%
    09:00 +32°C° 0 mm 1 mps 752 mmHg 64%
    10:00 +35°C° 0 mm 1 mps 752 mmHg 50%
    11:00 +36°C° 0 mm 1 mps 751 mmHg 45%
    12:00 +39°C° 0 mm 1 mps 751 mmHg 41%
    13:00 +40°C° 0 mm 1 mps 750 mmHg 36%
    14:00 +37°C° 0 mm 1 mps 749 mmHg 43%
    15:00 +35°C° 0 mm 1 mps 748 mmHg 49%
    16:00 +34°C° 0 mm 1 mps 747 mmHg 55%
    17:00 +32°C° 0.3 mm 1 mps 748 mmHg 64%
    18:00 +30°C° 0.3 mm 2 mps 748 mmHg 72%
    19:00 +28°C° 0.3 mm 2 mps 748 mmHg 81%
    20:00 +27°C° 0.4 mm 1 mps 749 mmHg 85%
    21:00 +26°C° 0.4 mm 1 mps 749 mmHg 90%
    22:00 +23°C° 0.4 mm 0 mps 750 mmHg 94%
    23:00 +23°C° 0.1 mm 0 mps 750 mmHg 95%

    23 September, Monday

    Time Temperature Precipitation Wind Pressure Humidity
    00:00 +23°C° 0.1 mm 0 mps 749 mmHg 95%
    01:00 +25°C° 0.1 mm 1 mps 749 mmHg 95%
    02:00 +23°C° 0.8 mm 0 mps 749 mmHg 95%
    03:00 +23°C° 0.8 mm 0 mps 749 mmHg 95%
    04:00 +23°C° 0.8 mm 0 mps 749 mmHg 95%
    05:00 +23°C° 1.1 mm 0 mps 750 mmHg 96%
    06:00 +25°C° 1.1 mm 1 mps 751 mmHg 96%
    07:00 +25°C° 1.1 mm 1 mps 752 mmHg 97%
    08:00 +27°C° 0.2 mm 1 mps 752 mmHg 89%
    09:00 +28°C° 0.2 mm 1 mps 753 mmHg 82%
    10:00 +28°C° 0.2 mm 0 mps 753 mmHg 75%
    11:00 +29°C° 0.9 mm 1 mps 752 mmHg 81%
    12:00 +28°C° 0.9 mm 1 mps 751 mmHg 86%
    13:00 +27°C° 0.9 mm 1 mps 751 mmHg 92%
    14:00 +27°C° 0.2 mm 1 mps 750 mmHg 93%
    15:00 +27°C° 0.2 mm 1 mps 750 mmHg 94%
    16:00 +27°C° 0.2 mm 1 mps 749 mmHg 94%
    17:00 +26°C° 0 mm 1 mps 749 mmHg 95%
    18:00 +24°C° 0 mm 0 mps 750 mmHg 97%
    19:00 +23°C° 0 mm 0 mps 750 mmHg 98%
    20:00 +23°C° 0 mm 0 mps 750 mmHg 98%
    21:00 +23°C° 0 mm 0 mps 751 mmHg 98%
    22:00 +25°C° 0 mm 1 mps 751 mmHg 99%
    23:00 +24°C° 0 mm 1 mps 751 mmHg 99%

    24 September, Tuesday

    Time Temperature Precipitation Wind Pressure Humidity
    00:00 +24°C° 0 mm 1 mps 751 mmHg 99%
    01:00 +24°C° 0 mm 1 mps 751 mmHg 99%
    02:00 +22°C° 0 mm 0 mps 751 mmHg 99%
    03:00 +22°C° 0 mm 0 mps 751 mmHg 98%
    04:00 +22°C° 0 mm 0 mps 751 mmHg 98%
    05:00 +22°C° 0 mm 0 mps 751 mmHg 97%
    06:00 +23°C° 0 mm 0 mps 752 mmHg 95%
    07:00 +23°C° 0 mm 0 mps 753 mmHg 93%
    08:00 +27°C° 0 mm 1 mps 753 mmHg 85%
    09:00 +28°C° 0 mm 1 mps 753 mmHg 77%
    10:00 +30°C° 0 mm 1 mps 753 mmHg 69%
    11:00 +31°C° 0 mm 1 mps 753 mmHg 66%
    12:00 +32°C° 0 mm 1 mps 752 mmHg 62%
    13:00 +33°C° 0 mm 1 mps 751 mmHg 58%
    14:00 +31°C° 0.1 mm 1 mps 751 mmHg 65%
    15:00 +30°C° 0.1 mm 1 mps 750 mmHg 72%
    16:00 +28°C° 0.1 mm 1 mps 750 mmHg 79%
    17:00 +27°C° 0 mm 1 mps 750 mmHg 83%
    18:00 +27°C° 0 mm 1 mps 750 mmHg 86%
    19:00 +26°C° 0 mm 1 mps 750 mmHg 89%
    20:00 +25°C° 0 mm 1 mps 750 mmHg 91%
    21:00 +23°C° 0 mm 0 mps 751 mmHg 92%
    22:00 +22°C° 0 mm 0 mps 751 mmHg 94%
    23:00 +22°C° 0 mm 0 mps 751 mmHg 94%
    Show more